Location: Unspecified
(50.1700°N, 6.8600°E)
Time: 19:52:35
(UTC+00:00)

Cosmos 1484 Rocket - Pass Details

Date: 24 January 2019
Orbit: 506 x 560 km, 97.4° (Epoch: 20 February)

Event Time Altitude Azimuth Distance (km) Brightness Sun altitude
Rises 06:31:15 0° 359° (N) 2,762 6.2 -7.5°
Reaches altitude 10° 06:34:01 10° 339° (NNW) 1,855 5.1 -7.1°
Maximum altitude 06:36:35 17° 299° (WNW) 1,463 4.4 -6.7°
Drops below altitude 10° 06:39:07 10° 259° (W) 1,833 5.0 -6.4°
Sets 06:41:50 0° 239° (WSW) 2,712 6.0 -6.0°
